CW9648 Weather Reports


Display with metric or nautical units.
time (UTC)temp
F
wind
direction
speed
MPH
gust
MPH
rain 1hr
in
rain 24hr
in
rain mn
in
humidity
%
barometer
mb
20260506231004 76 318 5.0 15.0 0.00 0.00 0.00 86 1010.3
20260506230503 77 337 5.0 11.0 0.00 0.00 0.00 86 1010.2
20260506230004 78 339 5.0 11.0 0.00 0.00 0.00 85 1010.0
20260506225503 81 341 2.0 8.0 0.00 0.00 0.00 87 1009.8
20260506225004 82 26 1.0 2.0 0.00 0.00 0.00 87 1009.7
20260506224503 82 34 1.0 2.0 0.00 0.00 0.00 86 1009.7
20260506224003 82 31 1.0 2.0 0.00 0.00 0.00 86 1009.7
20260506223504 82 2 1.0 2.0 0.00 0.00 0.00 85 1009.8
20260506223004 82 350 0.0 2.0 0.00 0.00 0.00 84 1010.0
20260506222503 83 353 0.0 1.0 0.00 0.00 0.00 83 1009.9
20260506222003 83 354 0.0 1.0 0.00 0.00 0.00 82 1009.7
20260506221504 83 341 0.0 1.0 0.00 0.00 0.00 81 1009.8
20260506221004 83 333 1.0 2.0 0.00 0.00 0.00 81 1009.7
20260506220524 84 349 1.0 2.0 0.00 0.00 0.00 80 1009.6
20260506220004 84 73 0.0 2.0 0.00 0.00 0.00 80 1009.6
20260506215503 84 241 1.0 3.0 0.00 0.00 0.00 81 1009.7
20260506215004 83 221 1.0 3.0 0.00 0.00 0.00 81 1009.6
20260506214503 83 184 1.0 4.0 0.00 0.00 0.00 81 1009.4
20260506214025 83 180 1.0 4.0 0.00 0.00 0.00 81 1009.5
20260506213503 83 220 1.0 2.0 0.00 0.00 0.00 81 1009.7
20260506213003 83 240 1.0 2.0 0.00 0.00 0.00 81 1009.7
20260506212504 82 181 1.0 2.0 0.00 0.00 0.00 83 1009.8
20260506212003 82 196 1.0 2.0 0.00 0.00 0.00 83 1009.8
20260506211504 82 220 1.0 4.0 0.00 0.00 0.00 83 1009.9
20260506211003 82 241 1.0 4.0 0.00 0.00 0.00 84 1009.9
20260506210503 82 108 1.0 3.0 0.00 0.00 0.00 84 1009.8
20260506210004 82 156 1.0 3.0 0.00 0.00 0.00 83 1009.9
20260506205503 82 160 1.0 3.0 0.00 0.00 0.00 82 1009.9
20260506205003 83 161 1.0 4.0 0.00 0.00 0.00 82 1009.9
20260506204504 83 156 2.0 4.0 0.00 0.00 0.00 81 1009.9
20260506204004 83 149 1.0 4.0 0.00 0.00 0.00 80 1010.0
20260506203503 84 152 2.0 4.0 0.00 0.00 0.00 81 1010.0
20260506203024 84 160 2.0 4.0 0.00 0.00 0.00 80 1010.0
20260506202503 83 227 2.0 4.0 0.00 0.00 0.00 82 1009.9
20260506202003 83 217 2.0 6.0 0.00 0.00 0.00 80 1010.0
20260506201503 83 165 2.0 6.0 0.00 0.00 0.00 81 1010.0
20260506201003 83 151 3.0 6.0 0.00 0.00 0.00 82 1010.1
20260506200503 83 154 3.0 6.0 0.00 0.00 0.00 80 1010.2
20260506200004 84 175 2.0 6.0 0.00 0.00 0.00 80 1010.1
20260506195503 84 206 1.0 6.0 0.00 0.00 0.00 81 1010.0
20260506195003 83 173 2.0 6.0 0.00 0.00 0.00 82 1010.0
20260506194503 83 171 2.0 5.0 0.00 0.00 0.00 82 1010.0
20260506194003 83 151 2.0 5.0 0.00 0.00 0.00 83 1010.0
20260506193524 82 154 2.0 5.0 0.00 0.00 0.00 83 1009.9
20260506193003 82 193 1.0 5.0 0.00 0.00 0.00 85 1009.9
20260506192504 81 210 1.0 5.0 0.00 0.00 0.00 84 1009.8
20260506192003 81 290 2.0 5.0 0.00 0.00 0.00 84 1010.0
20260506191524 81 259 2.0 5.0 0.00 0.00 0.00 85 1010.0
20260506191003 81 236 2.0 3.0 0.00 0.00 0.00 86 1010.2
20260506190503 80 225 1.0 3.0 0.00 0.00 0.00 85 1010.5
20260506190004 80 172 1.0 4.0 0.00 0.00 0.00 86 1010.5
20260506185504 80 177 1.0 4.0 0.00 0.00 0.00 86 1010.7
20260506185024 80 174 1.0 4.0 0.00 0.00 0.00 86 1010.8
20260506184503 80 155 1.0 4.0 0.00 0.00 0.00 86 1011.1
20260506184024 80 12 1.0 3.0 0.00 0.00 0.00 86 1011.2
20260506183503 80 360 1.0 3.0 0.00 0.00 0.00 86 1011.2
20260506183004 80 175 0.0 1.0 0.00 0.00 0.00 87 1011.5
20260506182524 80 164 0.0 1.0 0.00 0.00 0.00 87 1011.6
20260506182003 80 127 0.0 1.0 0.00 0.00 0.00 88 1011.6
20260506181524 80 148 1.0 2.0 0.00 0.00 0.00 87 1011.8
20260506181003 80 163 1.0 2.0 0.00 0.00 0.00 87 1011.9
20260506180503 80 186 0.0 2.0 0.00 0.00 0.00 87 1012.1
20260506180024 80 139 1.0 2.0 0.00 0.00 0.00 88 1012.1
20260506175503 80 167 1.0 2.0 0.00 0.00 0.00 87 1012.1
20260506175003 80 201 0.0 2.0 0.00 0.00 0.00 87 1012.3
20260506174504 80 178 0.0 2.0 0.00 0.00 0.00 87 1012.5
20260506174003 80 136 0.0 2.0 0.00 0.00 0.00 87 1012.5
20260506173524 80 144 1.0 3.0 0.00 0.00 0.00 88 1012.4
20260506173003 80 131 1.0 3.0 0.00 0.00 0.00 88 1012.5
20260506172503 80 26 1.0 3.0 0.00 0.00 0.00 88 1012.5
20260506172024 79 1 1.0 3.0 0.00 0.00 0.00 89 1012.7
20260506171504 79 359 1.0 3.0 0.00 0.00 0.00 89 1012.9
20260506171003 79 354 0.0 2.0 0.00 0.00 0.00 89 1013.0
20260506170503 79 360 1.0 3.0 0.00 0.00 0.00 88 1013.0
20260506170004 79 359 1.0 3.0 0.00 0.00 0.00 88 1012.9
20260506165504 79 358 1.0 2.0 0.00 0.00 0.00 88 1013.0
20260506165003 79 138 1.0 4.0 0.00 0.00 0.00 88 1012.8
20260506164503 79 149 1.0 4.0 0.00 0.00 0.00 88 1012.8
20260506164003 79 6 1.0 2.0 0.00 0.00 0.00 88 1012.7
20260506163504 79 7 1.0 4.0 0.00 0.00 0.00 89 1012.6
20260506163003 79 152 1.0 4.0 0.00 0.00 0.00 89 1012.2
20260506162503 79 153 1.0 3.0 0.00 0.00 0.00 89 1012.2
20260506162003 79 154 2.0 4.0 0.00 0.00 0.00 89 1012.4
20260506161503 79 156 2.0 4.0 0.00 0.00 0.00 89 1012.2
20260506161024 79 153 1.0 4.0 0.00 0.00 0.00 89 1012.3
20260506160503 79 158 1.0 3.0 0.00 0.00 0.00 89 1012.4
20260506160004 78 161 1.0 3.0 0.00 0.00 0.00 90 1012.4
20260506155503 78 151 1.0 4.0 0.00 0.00 0.00 90 1012.3
20260506155003 78 151 2.0 5.0 0.00 0.00 0.00 90 1012.3
20260506154504 78 158 1.0 5.0 0.00 0.00 0.00 90 1012.2
20260506154024 78 169 1.0 3.0 0.00 0.00 0.00 90 1012.1
20260506153503 78 170 1.0 3.0 0.00 0.00 0.00 90 1012.3
20260506153024 78 165 1.0 3.0 0.00 0.00 0.00 90 1012.2
20260506152524 78 166 1.0 3.0 0.00 0.00 0.00 90 1012.1
20260506152024 78 171 1.0 3.0 0.00 0.00 0.00 91 1012.1
20260506151503 78 190 0.0 2.0 0.00 0.00 0.00 91 1012.1
20260506151003 78 198 1.0 2.0 0.00 0.00 0.00 91 1012.0
20260506150503 78 182 1.0 3.0 0.00 0.00 0.00 91 1012.0
20260506150004 78 162 1.0 4.0 0.00 0.00 0.00 91 1011.9
20260506145524 77 161 1.0 4.0 0.00 0.00 0.00 91 1011.8
20260506145003 77 160 1.0 2.0 0.00 0.00 0.00 91 1011.8
20260506144503 77 160 1.0 2.0 0.00 0.00 0.00 91 1011.7
20260506144003 77 160 1.0 2.0 0.00 0.00 0.00 91 1011.5
20260506143503 77 159 1.0 4.0 0.00 0.00 0.00 91 1011.7
20260506143003 77 158 2.0 5.0 0.00 0.00 0.00 91 1011.7
20260506142503 77 157 2.0 5.0 0.00 0.00 0.00 91 1011.6
20260506142003 77 158 1.0 4.0 0.00 0.00 0.00 91 1011.7
20260506141503 77 157 1.0 5.0 0.00 0.00 0.00 91 1011.6
20260506141003 77 161 1.0 5.0 0.00 0.00 0.00 91 1011.5
20260506140503 77 165 1.0 3.0 0.00 0.00 0.00 91 1011.5
20260506140003 77 159 1.0 5.0 0.00 0.00 0.00 92 1011.5
20260506135503 77 165 1.0 5.0 0.00 0.00 0.00 92 1011.4
20260506135003 77 183 1.0 4.0 0.00 0.00 0.00 92 1011.4
20260506134503 76 192 1.0 4.0 0.00 0.00 0.00 92 1011.5
20260506134024 76 150 1.0 4.0 0.00 0.00 0.00 92 1011.5
20260506133503 76 161 1.0 5.0 0.00 0.00 0.00 92 1011.5
20260506133003 76 168 1.0 5.0 0.00 0.00 0.00 93 1011.5
20260506132503 76 163 2.0 5.0 0.00 0.00 0.00 93 1011.3
20260506132024 76 165 1.0 5.0 0.00 0.00 0.00 93 1011.3
20260506131524 75 167 1.0 2.0 0.00 0.00 0.00 93 1011.4
20260506131004 75 160 0.0 2.0 0.00 0.00 0.00 93 1011.4
20260506130504 75 147 0.0 2.0 0.00 0.00 0.00 93 1011.4
20260506130005 75 169 1.0 3.0 0.00 0.00 0.00 93 1011.3
20260506125504 75 169 1.0 3.0 0.00 0.00 0.00 93 1011.2
20260506125025 75 164 1.0 4.0 0.00 0.00 0.00 93 1011.1
20260506124525 75 168 1.0 4.0 0.00 0.00 0.00 93 1011.1
20260506124004 75 167 2.0 4.0 0.00 0.00 0.00 93 1011.1
20260506123525 74 166 1.0 4.0 0.00 0.00 0.00 93 1011.0
20260506123004 74 174 1.0 4.0 0.00 0.00 0.00 93 1011.1
20260506122504 74 172 1.0 3.0 0.00 0.00 0.00 93 1011.1
20260506122004 74 165 1.0 4.0 0.00 0.00 0.00 93 1010.9
20260506121504 74 162 1.0 4.0 0.00 0.00 0.00 93 1010.9
20260506121004 74 163 1.0 4.0 0.00 0.00 0.00 93 1010.9
20260506120525 74 165 1.0 4.0 0.00 0.00 0.00 93 1010.8
20260506120011 74 172 0.0 3.0 0.00 0.00 0.00 93 1010.8
20260506115504 74 165 0.0 3.0 0.00 0.00 0.00 93 1010.7
20260506115004 74 155 0.0 3.0 0.00 0.00 0.00 93 1010.8
20260506114504 74 0 0.0 0.0 0.00 0.00 0.00 93 1010.7
20260506114004 74 0 0.0 0.0 0.00 0.00 0.00 93 1010.6
20260506113525 74 0 0.0 0.0 0.00 0.00 0.00 93 1010.6
20260506113004 74 0 0.0 0.0 0.00 0.00 0.00 93 1010.5
20260506112504 74 0 0.0 0.0 0.00 0.00 0.00 93 1010.3
20260506112004 74 162 0.0 2.0 0.00 0.00 0.00 93 1010.4
20260506111525 74 162 1.0 4.0 0.00 0.00 0.00 93 1010.3
20260506111004 74 164 1.0 4.0 0.00 0.00 0.00 93 1010.3
20260506110504 74 212 0.0 1.0 0.00 0.00 0.00 93 1010.3
20260506110004 74 212 0.0 2.0 0.00 0.00 0.00 93 1010.3
20260506105525 74 200 1.0 2.0 0.00 0.00 0.00 93 1010.1
20260506105004 74 178 1.0 5.0 0.00 0.00 0.00 93 1010.1
20260506104504 74 182 1.0 5.0 0.00 0.00 0.00 93 1010.1
20260506104025 74 192 1.0 5.0 0.00 0.00 0.00 93 1010.1
20260506103504 74 191 1.0 3.0 0.00 0.00 0.00 93 1010.0
20260506103004 74 177 1.0 3.0 0.00 0.00 0.00 93 1010.0
20260506102504 74 166 1.0 3.0 0.00 0.00 0.00 93 1010.0
20260506102004 74 204 1.0 2.0 0.00 0.00 0.00 93 1010.1
20260506101504 74 216 1.0 3.0 0.00 0.00 0.00 93 1010.0
20260506101004 74 209 1.0 3.0 0.00 0.00 0.00 93 1010.1
20260506100504 74 201 1.0 4.0 0.00 0.00 0.00 93 1010.0
20260506100004 74 202 1.0 4.0 0.00 0.00 0.00 93 1010.0
20260506095504 74 203 1.0 3.0 0.00 0.00 0.00 93 1009.9
20260506095004 74 188 0.0 2.0 0.00 0.00 0.00 93 1009.9
20260506094504 74 184 0.0 2.0 0.00 0.00 0.00 93 1009.9
20260506094004 74 169 1.0 2.0 0.00 0.00 0.00 93 1009.9
20260506093504 74 180 1.0 2.0 0.00 0.00 0.00 93 1009.8
20260506093004 75 198 1.0 2.0 0.00 0.00 0.00 93 1009.9
20260506092504 75 184 1.0 4.0 0.00 0.00 0.00 93 1009.9
20260506092004 75 186 1.0 4.0 0.00 0.00 0.00 93 1009.9
20260506091504 75 192 1.0 2.0 0.00 0.00 0.00 93 1010.0
20260506091004 75 189 1.0 3.0 0.00 0.00 0.00 93 1010.0
20260506090525 75 201 1.0 3.0 0.00 0.00 0.00 93 1009.9
20260506090004 75 190 1.0 5.0 0.00 0.00 0.00 93 1009.8
20260506085504 75 183 1.0 5.0 0.00 0.00 0.00 93 1009.9
20260506085004 75 199 1.0 3.0 0.00 0.00 0.00 93 1010.0
20260506084504 75 198 1.0 3.0 0.00 0.00 0.00 93 1009.9
20260506084004 75 202 1.0 3.0 0.00 0.00 0.00 93 1010.0
20260506083504 75 197 1.0 3.0 0.00 0.00 0.00 93 1009.9
20260506083004 75 188 1.0 2.0 0.00 0.00 0.00 93 1009.9
20260506082504 75 203 1.0 2.0 0.00 0.00 0.00 93 1009.9
20260506082004 75 208 1.0 2.0 0.00 0.00 0.00 93 1009.9
20260506081504 75 202 0.0 2.0 0.00 0.00 0.00 93 1009.9
20260506081025 75 197 0.0 2.0 0.00 0.00 0.00 93 1009.9
20260506080504 75 189 1.0 3.0 0.00 0.00 0.00 93 1009.9
20260506073504 75 187 1.0 2.0 0.00 0.00 0.00 92 1010.1
20260506073004 75 186 0.0 2.0 0.00 0.00 0.00 92 1010.2
20260506072504 75 171 1.0 4.0 0.00 0.00 0.00 92 1010.1
20260506072004 75 165 1.0 5.0 0.00 0.00 0.00 92 1010.2
20260506071525 75 161 1.0 5.0 0.00 0.00 0.00 92 1010.3
20260506071004 75 176 1.0 4.0 0.00 0.00 0.00 92 1010.3
20260506070504 75 189 1.0 2.0 0.00 0.00 0.00 92 1010.5
20260506062504 76 196 1.0 3.0 0.00 0.00 0.00 91 1010.2
20260506062004 76 196 1.0 5.0 0.00 0.00 0.00 91 1010.4
20260506061504 76 205 1.0 5.0 0.00 0.00 0.00 92 1010.3
20260506061004 76 204 1.0 4.0 0.00 0.00 0.00 92 1010.3
20260506060504 76 198 2.0 5.0 0.00 0.00 0.00 92 1010.3
20260506051004 76 190 2.0 5.0 0.00 0.00 0.00 91 1010.1
20260506050504 76 182 2.0 7.0 0.00 0.00 0.00 91 1010.1
20260506045004 76 193 1.0 6.0 0.00 0.00 0.00 91 1010.3
20260506044504 76 193 1.0 6.0 0.00 0.00 0.00 91 1010.3
20260506044004 76 184 1.0 6.0 0.00 0.00 0.00 91 1010.3
20260506043504 76 176 1.0 6.0 0.00 0.00 0.00 91 1010.1
20260506043004 76 176 2.0 5.0 0.00 0.00 0.00 91 1010.2
20260506042525 76 183 1.0 5.0 0.00 0.00 0.00 91 1010.2
20260506042004 76 197 1.0 6.0 0.00 0.00 0.00 91 1010.1
20260506041525 76 181 2.0 6.0 0.00 0.00 0.00 91 1010.0
20260506041004 76 178 2.0 5.0 0.00 0.00 0.00 91 1010.1
20260506040504 76 184 1.0 4.0 0.00 0.00 0.00 91 1010.0
20260506040004 76 186 1.0 4.0 0.00 0.00 0.00 91 1010.0
20260506035504 76 177 2.0 6.0 0.00 0.00 0.00 91 1010.0
20260506035004 76 174 2.0 6.0 0.00 0.00 0.00 91 1010.0
20260506034504 76 201 1.0 3.0 0.00 0.00 0.00 91 1010.0
20260506034004 76 202 1.0 3.0 0.00 0.00 0.00 91 1009.9
20260506033504 76 204 2.0 4.0 0.00 0.00 0.00 91 1009.8
20260506033004 76 192 2.0 6.0 0.00 0.00 0.00 91 1009.7
20260506032504 76 189 2.0 6.0 0.00 0.00 0.00 91 1009.6
20260506032004 76 206 2.0 8.0 0.00 0.00 0.00 91 1009.6
20260506031504 76 210 1.0 8.0 0.00 0.00 0.00 91 1009.5
20260506031004 76 182 1.0 5.0 0.00 0.00 0.00 90 1009.4
20260506030504 76 179 2.0 5.0 0.00 0.00 0.00 90 1009.4
20260506030005 76 195 1.0 5.0 0.00 0.00 0.00 90 1009.2
20260506025504 76 187 1.0 4.0 0.00 0.00 0.00 90 1009.3
20260506025004 76 167 2.0 7.0 0.00 0.00 0.00 90 1009.2
20260506024504 76 169 2.0 7.0 0.00 0.00 0.00 90 1009.1
20260506024004 77 174 2.0 5.0 0.00 0.00 0.00 89 1009.0
20260506023504 77 187 1.0 4.0 0.00 0.00 0.00 89 1009.1
20260506023004 77 195 2.0 4.0 0.00 0.00 0.00 89 1009.1
20260506022504 77 185 2.0 4.0 0.00 0.00 0.00 89 1009.0
20260506022004 77 180 2.0 8.0 0.00 0.00 0.00 89 1008.9
20260506021504 77 185 2.0 8.0 0.00 0.00 0.00 89 1008.9
20260506021004 77 188 1.0 5.0 0.00 0.00 0.00 89 1008.7
20260506020504 77 179 2.0 5.0 0.00 0.00 0.00 89 1008.7
20260506020004 77 180 2.0 6.0 0.00 0.00 0.00 89 1008.6
20260506015504 78 184 2.0 6.0 0.00 0.00 0.00 89 1008.4
20260506015004 78 191 2.0 6.0 0.00 0.00 0.00 89 1008.4
20260506014504 78 200 1.0 4.0 0.00 0.00 0.00 89 1008.4
20260506014025 78 183 1.0 6.0 0.00 0.00 0.00 89 1008.2
20260506013504 78 177 2.0 6.0 0.00 0.00 0.00 89 1008.2
20260506013004 78 186 2.0 6.0 0.00 0.00 0.00 89 1008.1
20260506012525 78 182 2.0 6.0 0.00 0.00 0.00 89 1008.1
20260506012004 78 172 2.0 6.0 0.00 0.00 0.00 89 1007.9
20260506011504 78 172 1.0 4.0 0.00 0.00 0.00 88 1007.8
20260506011004 78 206 1.0 5.0 0.00 0.00 0.00 88 1007.7
20260506010504 78 206 2.0 5.0 0.00 0.00 0.00 87 1007.6
20260506010004 78 191 2.0 5.0 0.00 0.00 0.00 87 1007.6
20260506005504 78 186 2.0 7.0 0.00 0.00 0.00 87 1007.5
20260506005004 78 192 2.0 7.0 0.00 0.00 0.00 87 1007.5
20260506004504 78 194 2.0 6.0 0.00 0.00 0.00 87 1007.4
20260506004004 79 191 2.0 6.0 0.00 0.00 0.00 87 1007.3
20260506003504 79 182 2.0 6.0 0.00 0.00 0.00 86 1007.2
20260506003004 79 176 2.0 6.0 0.00 0.00 0.00 86 1007.4
20260506002504 79 193 2.0 4.0 0.00 0.00 0.00 86 1007.3
20260506002004 79 197 2.0 4.0 0.00 0.00 0.00 86 1007.4
20260506001507 79 180 2.0 5.0 0.00 0.00 0.00 85 1007.5
20260506001025 79 191 2.0 5.0 0.00 0.00 0.00 85 1007.4
20260506000524 80 213 1.0 5.0 0.00 0.00 0.00 85 1007.5
20260506000004 80 323 2.0 4.0 0.00 0.00 0.00 84 1007.3
20260505235504 80 2 2.0 6.0 0.00 0.00 0.00 84 1007.4
20260505235003 80 359 2.0 6.0 0.00 0.00 0.00 83 1007.4
20260505234503 80 181 3.0 8.0 0.00 0.00 0.00 83 1007.4
20260505234003 81 173 3.0 9.0 0.00 0.00 0.00 82 1007.4
20260505233525 81 173 3.0 9.0 0.00 0.00 0.00 82 1007.4
20260505233004 81 172 3.0 9.0 0.00 0.00 0.00 82 1007.5
20260505232504 82 174 4.0 9.0 0.00 0.00 0.00 81 1007.6
20260505232004 82 185 3.0 9.0 0.00 0.00 0.00 80 1007.6
20260505231525 82 193 2.0 6.0 0.00 0.00 0.00 80 1007.5